Location: Harwich
(41.6860°N, 70.0760°W)
Time: 13:41:09
(UTC-04:00)

Daily predictions for brighter satellites

Satellite Brightness Start Highest point End
(mag) Time Altitude Azimuth Time Altitude Azimuth Time Altitude Azimuth
deb Kosmos-1763 4.2 20:46:00 10° SSW 20:49:53 88° ESE 20:53:50 10° NNE
ATLAS 5 CENTAUR R/B 3.6 20:51:34 10° WSW 20:56:11 40° NW 21:01:08 10° NNE
Cosmos 1655 Rocket 4.3 20:50:33 10° SSW 20:56:44 73° W 21:02:59 10° N
Envisat 3.2 20:51:48 10° SSE 20:56:46 59° ENE 21:01:46 10° N
DELTA 2 R/B (1) 3.6 20:52:57 10° W 20:58:29 72° S 21:04:01 10° E
S3M 4.0 20:52:50 10° N 20:58:59 82° E 21:05:07 10° S
Cosmos 1378 4.4 20:55:59 10° SSW 20:59:35 45° W 21:03:12 10° N
H-2A R/B 2.2 20:55:30 10° SSE 21:00:01 81° ENE 21:04:34 10° NNW
Cosmos 1328 Rocket 3.6 21:00:01 10° N 21:04:29 89° E 21:08:55 10° S
Cosmos 371 Rocket 3.5 21:01:02 10° NNW 21:05:51 72° WSW 21:10:37 10° S
ERS-1 Rocket 3.3 21:01:33 10° S 21:06:32 67° WSW 21:11:34 10° NNW
Cosmos 2228 Rocket 3.6 21:04:44 10° NNW 21:09:09 62° W 21:13:35 10° S
Cosmos 2219 Rocket 4.3 21:07:07 10° NNE 21:09:40 13° NE 21:12:13 10° ENE
SPOT 5 2.9 21:07:05 10° SSE 21:11:31 62° ENE 21:16:13 10° N
Cosmos 1777 Rocket 4.0 21:07:30 10° S 21:12:42 64° ESE 21:17:55 10° NNE
ALOS 4.4 21:09:45 10° SSW 21:13:36 25° W 21:17:28 10° NW
YAOGAN 6 3.5 21:11:34 12° SE 21:14:39 34° ENE 21:17:58 10° N
Cosmos 1743 Rocket 4.2 21:13:24 10° SSW 21:17:49 61° W 21:22:16 10° N
Cosmos 405 3.3 21:15:01 10° N 21:18:34 50° ENE 21:21:39 13° SSE
MetOp-A 4.3 21:13:38 10° SSE 21:18:53 61° ENE 21:24:10 10° N
ARGOS 4.0 21:14:18 11° SE 21:18:57 36° ENE 21:23:51 10° N
Cosmos 1437 3.6 21:19:09 12° SSE 21:21:45 32° E 21:24:43 10° NNE
NOSS 3-1 (C) 4.4 21:18:23 10° SSE 21:23:01 25° ESE 21:27:58 10° ENE
H-2A R/B 3.7 21:20:03 10° ESE 21:24:00 22° ENE 21:28:02 10° NNE
Cosmos 1500 Rocket 3.7 21:20:14 10° SSW 21:24:34 76° W 21:29:00 10° N
deb Chang Zheng 4 4.3 21:21:26 10° N 21:25:42 57° WNW 21:29:57 10° SSW
Cosmos 2219 3.9 21:21:27 10° SSE 21:26:33 34° ESE 21:31:41 10° NE
Cosmos 883 Rocket 4.5 21:27:03 10° N 21:33:19 76° E 21:39:13 11° SSE
SL-08 RB Rocket 4.5 21:30:30 15° SE 21:33:39 36° ENE 21:37:45 10° N
Cosmos 2322 3.8 21:28:42 10° NNW 21:34:25 67° ENE 21:38:57 16° SE
Cosmos 1441 Rocket 4.2 21:32:00 10° SSW 21:35:39 47° WNW 21:39:19 10° N
SPOT 1/Viking Rocket 3.7 21:31:27 14° SSE 21:35:43 60° ENE 21:40:48 10° N
ATLAS CENTAUR R/B 3.6 21:33:03 10° WNW 21:36:23 21° WSW 21:39:30 10° SSW
Cosmos 2237 Rocket 4.3 21:33:34 10° NNE 21:36:38 15° NE 21:39:43 10° ENE
Delta 2 Rocket 4.0 21:37:29 10° SW 21:40:14 22° SSE 21:40:48 21° SSE
PSLV R/B 3.7 21:37:46 13° S 21:40:24 56° W 21:43:25 10° NNW
Cosmos 2322 Rocket 3.3 21:35:14 10° NW 21:40:24 38° WSW 21:45:32 10° S
Cosmos 1680 Rocket 3.6 21:35:22 10° NNW 21:40:36 68° ENE 21:44:32 18° SSE
Cosmos 923 Rocket 4.0 21:38:39 10° NNW 21:43:53 87° WSW 21:47:59 17° SSE
Cosmos 1726 3.3 21:42:52 10° NNE 21:46:11 28° ENE 21:47:47 21° ESE
SL-16 R/B 3.5 21:44:33 10° NW 21:49:39 35° WSW 21:54:43 10° SSW
USA 245 2.2 21:48:59 29° SSE 21:50:12 76° ENE 21:52:38 10° N
Cosmos 304 Rocket 3.7 21:46:13 10° NNW 21:51:04 88° ENE 21:54:23 20° SSE
Cosmos 2360 Rocket 2.2 21:45:51 10° NNW 21:51:32 88° WSW 21:55:40 19° SSE
Cosmos 2315 Rocket 4.0 21:46:16 10° N 21:52:30 77° E 21:57:25 17° SSE
NOAA 11 4.2 21:49:29 18° SSE 21:53:28 69° ENE 21:58:55 10° N
CZ-4B R/B 3.5 21:48:25 10° NNE 21:53:44 84° ESE 21:58:57 10° SSW
Cosmos 1908 4.2 21:50:17 10° NNW 21:54:01 46° W 21:57:31 11° SSW
Cosmos 1898 Rocket 4.3 21:53:03 21° SSE 21:55:35 32° E 22:00:10 10° NE
AVUM R/B 3.9 21:53:42 10° SW 21:55:52 39° WNW 21:58:15 10° NNE
Meteor 1-11 4.5 21:51:26 16° SSE 21:55:57 54° E 22:01:32 10° NNE
Cosmos 2266 Rocket 4.4 21:52:00 10° SSW 21:58:15 65° W 22:04:28 10° N
Landsat 7 4.2 21:56:08 22° SE 21:58:53 48° ENE 22:03:28 10° N
CARTOSAT-1 4.4 22:00:12 23° ESE 22:02:13 36° ENE 22:06:10 10° N
USA 229 DEB 4.3 21:58:30 10° SW 22:05:21 62° NW 22:12:19 10° NNE
USA 229 4.2 21:58:36 10° SW 22:05:27 63° NW 22:12:25 10° NNE
Cosmos 1633 Rocket 3.4 22:05:12 27° SSE 22:07:15 47° E 22:11:27 10° NNE
Sich 1 3.3 22:05:33 26° SSE 22:07:45 51° E 22:12:03 10° NNE
Terra 2.2 22:12:30 27° SE 22:14:45 49° ENE 22:19:20 10° N
Cosmos 2151 3.9 22:10:44 10° SSW 22:14:46 45° WNW 22:18:49 10° N
Cosmos 2227 Rocket 3.4 22:15:59 22° ESE 22:16:52 23° E 22:21:11 10° NE
Cosmos 1244 Rocket 4.5 22:12:18 14° S 22:17:51 89° E 22:24:10 10° N
SL-23 DEB 3.6 22:13:49 10° WNW 22:18:28 75° SW 22:19:33 41° SE
Cosmos 1805 Rocket 3.8 22:17:06 17° SSW 22:20:29 72° W 22:24:56 10° N
SeaSat 1 4.2 22:18:40 13° E 22:21:41 22° NE 22:25:25 10° N
Cosmos 2333 Rocket 3.3 22:16:51 10° N 22:22:02 33° ENE 22:25:11 20° ESE
Meteor 1-4 Rocket 2.9 22:19:33 10° N 22:23:17 52° ENE 22:24:10 41° SE
USA 32 4.1 22:18:10 10° N 22:23:25 66° E 22:25:56 31° SSE
Cosmos 1300 2.8 22:19:41 10° NNW 22:23:32 71° W 22:25:07 33° S
CZ-4 R/B 4.2 22:19:19 10° N 22:24:16 69° WNW 22:28:34 13° SSW
NOSS 3-1 (A) 3.5 22:20:05 15° SSW 22:24:53 55° ESE 22:31:10 10° NE
Nadezhda 1 Rocket 4.4 22:19:06 10° N 22:24:57 47° ENE 22:27:49 28° SE
Cosmos 1626 3.6 22:25:01 23° E 22:25:01 23° E 22:27:58 10° NE
SL-16 R/B 4.3 22:24:19 10° N 22:27:51 16° NE 22:31:21 10° E
CZ-4C R/B 3.2 22:31:52 41° SSW 22:32:53 63° WSW 22:36:20 10° NNW
COSMOS 2428 2.7 22:28:07 10° NNW 22:33:50 82° WSW 22:36:34 32° SSE
Lacrosse 4 Rocket 4.2 22:33:58 10° NNE 22:35:09 11° NE 22:36:20 10° ENE
Cosmos 1745 Rocket 4.0 22:32:33 28° SSE 22:35:57 67° E 22:42:06 10° NNE
Cosmos 1869 4.4 22:33:36 10° NNE 22:37:11 29° ENE 22:37:47 28° E
Cosmos 1707 Rocket 4.2 22:34:20 10° NNW 22:38:33 50° W 22:40:38 27° SSW
SL-08 R/B 4.4 22:35:14 25° S 22:39:02 82° E 22:45:20 10° N
Cosmos 1666 Rocket 4.1 22:39:51 22° SSW 22:42:31 56° W 22:46:52 10° N
Cosmos 2297 Rocket 3.2 22:43:59 26° ESE 22:44:26 27° ESE 22:49:05 10° NE
DELTA 2 R/B (1) 4.0 22:39:24 10° W 22:44:39 44° SSW 22:45:57 37° SSE
Cosmos 2298 Rocket 4.1 22:41:52 17° SSW 22:45:57 76° WNW 22:51:18 10° NNE
Cosmos 2058 4.4 22:42:56 13° SW 22:46:10 32° WNW 22:49:53 10° NNW
Cosmos 1455 2.6 22:42:55 10° N 22:46:35 45° E 22:46:54 43° E
ATLAS 2AS CENTAUR R/B 3.5 22:45:19 30° SE 22:47:39 37° ESE 22:54:44 10° NE
Cosmos 2219 Rocket 2.2 22:49:01 10° NNW 22:54:37 75° ENE 22:56:41 40° SE
COSMOS 2455 4.3 22:50:07 10° NNW 22:55:18 29° NE 22:58:59 16° E
Cosmos 1470 Rocket 3.4 22:54:47 53° S 22:55:46 80° E 23:00:06 10° N
Cosmos 1933 Rocket 3.5 22:56:12 51° S 22:57:17 80° E 23:01:47 10° N
Cosmos 1937 Rocket 3.4 22:56:44 33° SSW 22:59:08 88° ESE 23:04:23 10° NNE
H-2A R/B 2.6 23:00:41 31° SSW 23:02:59 53° W 23:08:17 10° NNW
Cosmos 220 Rocket 3.9 23:02:18 49° SSW 23:03:29 89° WNW 23:07:55 10° NNE
BREEZE-M DEB (TANK) 2.9 23:04:49 10° NW 23:06:57 50° NNE 23:07:05 50° NE
Cosmos 1386 Rocket 4.3 23:04:48 37° S 23:07:22 85° E 23:13:25 10° N
Cosmos 1980 3.8 23:02:30 10° NNW 23:08:09 69° ENE 23:10:00 43° SE
IGS 5A 4.1 23:07:27 39° SW 23:08:23 47° W 23:12:26 10° NNW
Cosmos 1703 4.0 23:07:24 35° SW 23:08:32 47° W 23:12:20 10° N
ATLAS 3B R/B 3.7 23:04:04 10° NNW 23:10:43 40° NE 23:15:00 19° ESE
NOSS 3-1 (C) 4.0 23:07:29 10° SW 23:13:17 57° NW 23:19:47 10° NNE
Cosmos 1271 Rocket 3.8 23:10:43 10° NNW 23:14:14 35° W 23:14:50 33° WSW
Cosmos 990 Rocket 3.8 23:13:26 45° SSW 23:15:03 87° ESE 23:20:14 10° NNE
NOSS 0 Rocket 3.8 23:09:05 10° NNW 23:15:16 86° WSW 23:17:23 44° SSE
Cosmos 1726 4.4 23:18:46 10° NW 23:21:20 18° W 23:22:28 16° WSW
Cosmos 2237 Rocket 2.2 23:15:54 10° NNW 23:21:38 82° ENE 23:23:15 49° SE
Cosmos 2082 3.6 23:21:48 44° S 23:23:41 79° ESE 23:29:26 10° NNE
Cosmos 1933 3.7 23:20:26 10° N 23:24:22 51° ENE 23:24:22 51° ENE
IKONOS-2 4.4 23:36:22 80° S 23:36:35 87° WSW 23:40:55 10° NNW
Cosmos 1862 Rocket 4.2 23:32:38 10° NNW 23:36:47 44° W 23:37:19 41° WSW
Cosmos 1125 Rocket 3.5 23:42:38 60° SE 23:43:17 66° ESE 23:48:34 10° NNE
CZ-4B R/B 3.0 23:43:58 29° NE 23:43:58 29° NE 23:46:34 10° N
Cosmos 1048 Rocket 4.3 23:40:03 10° NNW 23:45:20 58° ENE 23:46:28 48° ESE
Cosmos 1689 Rocket 4.0 23:53:08 30° NE 23:53:08 30° NE 23:55:22 10° N
Terra 3.8 23:51:23 16° WSW 23:52:45 18° W 23:55:56 10° NW
